Regional Weather Roundup
Issued by NWS

Home | Current Version | Previous Version | Graphics & Text | Print | Product List | Glossary On
Versions: 1 2 3 4 5 6 7 8 9 10 11 12 13 14 15 16 17 18 19 20 21 22 23 24 25 26 27 28 29 30 31 32 33 34 35 36 37 38 39 40 41 42 43 44 45 46 47 48 49 50
000
ASUS45 KBOU 281907
RWRCO

WEATHER ROUNDUP FOR COLORADO
NATIONAL WEATHER SERVICE DENVER/BOULDER CO
1200 PM MST WED JAN 28 2015

NOTE: "FAIR" INDICATES FEW OR NO CLOUDS BELOW 12000 FEET WITH NO
SIGNIFICANT WEATHER AND/OR OBSTRUCTIONS TO VISIBILITY.

COZ001>005-013-030-031-282000-
...NORTHWEST COLORADO...

CITY           SKY/WX    TMP DP  RH WIND       PRES   REMARKS
CRAIG          MOSUNNY   40  32  73 W10       30.25F
HAYDEN         PTSUNNY   39  28  65 NW7       30.26S
MEEKER         MOSUNNY   42  30  62 SE6       30.27F
MOUNT WERNER   NOT AVBL
STEAMBOAT SPGS CLOUDY    38  29  69 CALM      30.26S
WALDEN         PTSUNNY   36  25  64 SW16      30.20F
$$

COZ006>008-011-282000-
...WEST CENTRAL VALLEYS...

CITY           SKY/WX    TMP DP  RH WIND       PRES   REMARKS
GRAND JUNCTION SUNNY     47  32  56 CALM      30.28F
MONTROSE       MOSUNNY   50  31  48 N5        30.30F
EAGLE          PTSUNNY   43  28  56 SW21G29   30.27F
RIFLE          SUNNY     43  29  57 CALM      30.28F
DELTA          MOSUNNY   49  32  51 CALM      30.30F
NUCLA          MOSUNNY   50  32  50 CALM      30.33F
$$

COZ017>023-064>068-282000-
...SOUTHWEST COLORADO...

CITY           SKY/WX    TMP DP  RH WIND       PRES   REMARKS
DURANGO        MOSUNNY   46  32  58 CALM      30.28F
CORTEZ         PTSUNNY   51  35  54 W5        30.29F
PAGOSA SPRINGS MOSUNNY   46  28  50 S5        30.29F
TELLURIDE      SUNNY     39  22  50 CALM      30.34
WOLF CREEK PAS NOT AVBL
$$

COZ009-010-012-014-032>034-037-058>063-282000-
...CENTRAL COLORADO...

CITY           SKY/WX    TMP DP  RH WIND       PRES   REMARKS
ASPEN          MOSUNNY   43  25  49 VRB3      30.27F
BUENA VISTA    PTSUNNY   47  18  31 W12G31    30.20F
COPPER MTN     LGT SNOW  27  18  69 W22G39    30.28F WCI  12
BERTHOUD PASS  CLOUDY    19  12  73 W37G45    30.24R HAZE    WCI  -1
COTTONWOOD PAS MOSUNNY   37  14  38 NW17G37   30.22S
GUNNISON       PTSUNNY   25  18  74 SE3       30.33F
KREMMLING      PTSUNNY   41  23  48 SW10G22   30.24F
LEADVILLE      MOSUNNY   32  17  54 NW21G31   30.25F WCI  20
MONARCH PASS   CLOUDY    23  21  93 MISG      30.39S
SALIDA         PTSUNNY   49  21  33 SW21G26   30.27F
SUNLIGHT       CLOUDY    32  27  80 CALM        N/A
WILKERSON PASS SUNNY     32  12  43 W12G29    30.26F WCI  23
$$

COZ069>075-282000-
...SAN LUIS VALLEY/SANGRE DE CRISTO MOUNTAINS...

CITY           SKY/WX    TMP DP  RH WIND       PRES   REMARKS
ALAMOSA        MOSUNNY   48  24  39 E9        30.23F
LA VETA PASS   NOT AVBL
SAGUACHE       SUNNY     41  28  60 NW12      30.26F
$$

COZ035-036-038>040-282000-
...NORTHERN COLORADO FRONT RANGE...

CITY           SKY/WX    TMP DP  RH WIND       PRES   REMARKS
DENVER INTL AP MOSUNNY   59  20  22 NW24G31   30.05F
DMNS CITY PARK   N/A     58  17  19 NW9G18    30.06F
AURORA         MOSUNNY   58  20  22 NW18G29   30.08S
FRONT RANGE AP PTSUNNY   59  25  27 W20G28    30.07F
ERIE MUNI ARPT MOSUNNY   58  17  20 W14G35    30.03F
BOULDER MUN AP MOSUNNY   57  21  24 W28G49    30.00F
CENTENNIAL     MOSUNNY   57  17  21 NW18G24   30.07F
BROOMFIELD     MOSUNNY   57  19  23 N20G41    30.08S
FORT COLLINS   PTSUNNY   59  23  25 W25G31    30.03F
LONGMONT       PTSUNNY   59  21  23 NW14G23   30.06F
$$

COZ041-046-047-076>085-087-088-282000-
...PIKES PEAK/PALMER DIVIDE AND SOUTHERN FOOTHILLS...

CITY           SKY/WX    TMP DP  RH WIND       PRES   REMARKS
COLO. SPRINGS  MOSUNNY   57  14  18 W25G36    30.09F
A. F. ACADEMY  SUNNY     54  13  19 NW20G32   30.08F
ELLICOTT       SUNNY    N/A N/A N/A NW25      30.07F
FALCON         SUNNY     55  12  18 W16G23    30.11F
FORT CARSON    SUNNY     59  19  20 VRB5      30.07F
LIMON          SUNNY     57  20  23 NW23G35   30.05R
MONUMENT HILL  SUNNY     50  18  27 NW14G21   30.10F
TRINIDAD       SUNNY     63  27  25 NW9       30.07F HAZE
$$

COZ042>045-048>051-090-091-282000-
...NORTHEAST COLORADO...

CITY           SKY/WX    TMP DP  RH WIND       PRES   REMARKS
GREELEY ARPT   MOSUNNY   61  28  29 NW21G26   30.02F
AKRON          SUNNY     59  26  28 NW36G46   30.00F
BURLINGTON     SUNNY     61  28  28 NW30G38   29.99F
WRAY           SUNNY     64  28  25 W33G46    29.95S
STERLING       SUNNY     64  34  32 NW33G39   29.97F
HOLYOKE        SUNNY     63  30  29 W29G38    29.93F
FORT MORGAN    SUNNY     60  26  27 W26G36    30.03S
$$

COZ086-089-092>099-282000-
...SOUTHEAST COLORADO...

CITY           SKY/WX    TMP DP  RH WIND       PRES   REMARKS
PUEBLO         SUNNY     64  20  18 W22G31    30.04F
LA JUNTA       SUNNY     67  23  19 NW17      30.02F
LAMAR          SUNNY     64  27  24 NW6       30.00S
SPRINGFIELD      N/A     66  22  18 NW21      30.01S
$$


USA.gov is the U.S. government's official web portal to all federal, state and local government web resources and services.